Temp
55 56 54 54 54 55 54 54 54 53 52 52 51 50 49 49 49 47 48 49 48 49 50 51 52 53 52 53 54 55 56 55 55 54 52 52 50 49 49 49 50 51
54 54 55 55 54 54 54 54 54 53 52 52 51 50 50 49 49 48 48 48 48 48 49 50 50 51 51 52 52 52 52 51 49 49 49 48 48 47 47 46 46 47
54 53 53 53 53 53 53 53 52 51 51 50 49 48 48 49 48 48 48 48 48 48 48 48 48 49 49 50 50 50 50 48 47 47 48 47 47 47 46 46 45 44
54 54 53 52 52 53 53 52 51 49 48 47 48 48 48 46 47 46 46 46 47 45 46 46 45 45 47 48 48 49 48 48 47 47 46 46 46 45 44 44 43 43
54 53 53 53 53 53 52 50 48 47 46 47 48 46 46 44 43 44 45 45 45 43 44 45 45 45 46 47 48 48 47 46 46 46 46 44 44 43 43 43 42 41
54 54 53 52 52 51 51 50 48 46 45 45 46 46 44 43 43 43 43 44 44 44 43 43 44 45 46 47 47 47 47 46 46 45 45 44 43 43 42 43 43 42
53 53 53 53 51 50 49 48 48 46 45 45 46 45 44 43 43 43 43 44 44 44 44 44 44 45 46 46 47 46 47 46 45 45 44 43 42 42 43 44 43 41
53 52 52 52 50 49 48 47 47 46 45 44 44 44 43 43 43 42 43 44 44 44 43 43 44 45 46 47 47 45 44 43 43 44 44 42 42 41 42 41 42 40
52 50 50 49 49 48 48 48 46 46 45 43 43 43 43 43 43 43 43 43 44 43 44 44 44 45 47 46 46 44 43 42 43 44 43 42 41 41 41 41 41 40
50 49 49 48 48 48 47 47 47 46 44 43 42 43 42 43 43 43 42 43 43 43 44 44 44 45 46 46 45 44 43 43 44 44 43 43 42 41 41 41 40 38
49 49 48 47 47 46 47 47 46 45 43 42 43 42 42 43 43 43 42 41 40 41 43 44 44 45 45 45 44 44 44 43 43 43 43 43 43 42 39 41 40 38
48 48 48 47 46 46 47 47 46 44 42 43 43 42 42 42 42 42 42 42 42 42 43 44 44 45 45 44 44 44 43 43 43 43 43 43 42 40 40 39 38 36
48 48 47 47 46 46 46 46 45 44 43 42 42 41 41 41 42 42 42 43 43 43 43 43 44 45 44 44 43 43 43 42 42 42 42 41 39 38 38 38 37 36
48 48 48 47 47 46 45 45 44 43 42 42 41 41 41 41 41 41 41 43 43 43 43 44 44 44 44 43 42 43 42 41 41 40 39 38 38 37 37 36 36 34
48 48 48 47 46 45 45 43 43 43 41 40 39 40 40 41 41 40 40 41 42 42 42 42 42 42 42 42 42 41 41 40 40 39 39 37 36 35 34 34 34 34
48 47 47 46 46 44 44 43 43 41 41 40 39 39 39 40 40 40 40 39 40 41 41 40 41 41 39 40 41 41 40 39 39 39 38 37 35 33 32 33 32 32
47 46 46 45 45 44 44 42 41 39 40 38 37 37 38 38 39 38 38 39 39 39 39 39 40 39 38 40 41 41 40 39 38 37 37 36 35 33 31 31 31 31
47 46 45 44 43 42 42 39 39 37 37 36 36 35 35 36 36 37 38 39 38 39 37 37 38 38 39 40 40 40 39 39 37 35 34 35 34 33 31 30 30 30
46 45 44 43 42 41 39 38 36 36 35 35 35 35 35 35 35 36 37 38 37 37 36 37 37 38 39 39 39 40 39 38 36 35 34 34 34 33 32 31 30 28
45 42 41 42 41 39 38 36 35 35 35 35 35 35 34 34 34 33 34 35 35 35 35 36 34 36 38 38 39 39 39 39 35 34 34 33 33 33 32 32 31 30
44 42 41 40 39 38 37 36 35 35 34 34 34 34 33 33 33 32 33 33 33 34 33 33 35 36 37 38 38 39 39 38 35 34 34 33 34 33 33 32 31 31
42 42 39 38 38 37 36 35 35 34 33 34 34 34 34 34 33 33 32 32 32 32 32 32 32 36 37 37 38 38 38 35 34 33 33 32 31 32 32 32 32 31
42 41 39 37 37 35 34 34 34 34 34 34 33 33 33 32 32 32 32 32 31 31 31 31 31 35 36 37 37 38 36 33 32 31 31 29 29 30 31 31 31 31
42 39 37 36 35 34 34 34 35 35 34 34 33 32 32 32 32 32 32 32 31 30 31 30 30 33 36 37 37 38 35 31 31 30 29 29 29 30 30 30 31 31
40 38 36 35 35 34 34 33 33 34 34 34 33 33 32 32 31 30 30 30 30 30 31 30 29 31 35 36 37 37 34 32 31 31 30 30 30 30 30 30 30 31
38 36 35 35 34 34 34 34 35 34 33 33 32 32 31 31 31 30 29 29 29 29 30 30 29 30 33 36 37 37 36 34 33 32 31 31 32 32 32 32 32 32
MSLP
1017.17 1017.21 1017.51 1017.81 1017.93 1017.99 1018.35 1018.63 1018.85 1019.17 1019.49 1019.69 1019.87 1020.15 1020.47 1020.73 1021.07 1021.51 1021.65 1021.79 1021.87 1022.15 1022.35 1022.53 1022.65 1022.79 1022.95 1023.11 1023.27 1023.37 1023.37 1023.51 1023.77 1024.03 1024.41 1024.69 1025.15 1025.41 1025.71 1026.07 1026.27 1026.45
1017.05 1017.23 1017.37 1017.57 1017.81 1018.01 1018.17 1018.37 1018.55 1018.79 1019.15 1019.45 1019.69 1019.95 1020.23 1020.55 1020.89 1021.19 1021.41 1021.59 1021.77 1021.95 1022.19 1022.33 1022.53 1022.75 1022.83 1022.93 1023.07 1023.15 1023.33 1023.61 1024.07 1024.39 1024.63 1024.97 1025.39 1025.69 1026.03 1026.33 1026.59 1026.81
1016.73 1016.99 1017.21 1017.43 1017.57 1017.79 1018.05 1018.33 1018.51 1018.75 1018.99 1019.29 1019.67 1019.99 1020.15 1020.29 1020.67 1021.01 1021.29 1021.49 1021.71 1021.85 1022.05 1022.27 1022.51 1022.63 1022.71 1022.81 1023.03 1023.19 1023.43 1023.79 1024.27 1024.63 1024.85 1025.19 1025.49 1025.85 1026.31 1026.57 1026.87 1027.07
1016.39 1016.57 1016.91 1017.27 1017.49 1017.67 1017.95 1018.31 1018.59 1018.85 1019.17 1019.45 1019.67 1019.91 1020.07 1020.29 1020.59 1020.99 1021.27 1021.53 1021.77 1022.01 1022.07 1022.21 1022.51 1022.65 1022.71 1022.89 1022.99 1023.21 1023.55 1023.89 1024.25 1024.59 1024.93 1025.33 1025.69 1026.05 1026.47 1026.77 1027.13 1027.41
1016.19 1016.45 1016.71 1017.01 1017.27 1017.49 1017.83 1018.19 1018.45 1018.79 1019.11 1019.29 1019.55 1019.89 1020.15 1020.41 1020.71 1020.97 1021.23 1021.49 1021.77 1022.07 1022.21 1022.29 1022.35 1022.53 1022.77 1022.89 1022.93 1023.21 1023.59 1023.99 1024.35 1024.59 1024.93 1025.45 1025.89 1026.19 1026.57 1026.81 1027.17 1027.53
1015.85 1016.09 1016.43 1016.73 1016.99 1017.27 1017.57 1017.87 1018.21 1018.59 1018.99 1019.31 1019.45 1019.73 1020.05 1020.41 1020.67 1020.93 1021.13 1021.37 1021.67 1021.95 1022.23 1022.31 1022.29 1022.55 1022.75 1022.79 1022.89 1023.15 1023.51 1023.91 1024.33 1024.55 1024.95 1025.45 1025.97 1026.31 1026.53 1026.75 1027.09 1027.49
1015.51 1015.73 1016.05 1016.35 1016.71 1016.99 1017.35 1017.67 1018.03 1018.43 1018.77 1019.05 1019.41 1019.73 1020.03 1020.37 1020.59 1020.83 1021.07 1021.31 1021.55 1021.87 1022.07 1022.13 1022.19 1022.41 1022.61 1022.71 1022.77 1023.11 1023.49 1023.85 1024.25 1024.53 1024.91 1025.41 1025.85 1026.33 1026.53 1026.67 1026.97 1027.43
1015.21 1015.47 1015.77 1016.05 1016.41 1016.75 1017.17 1017.51 1017.89 1018.27 1018.63 1019.03 1019.29 1019.57 1019.89 1020.21 1020.45 1020.75 1020.97 1021.19 1021.39 1021.65 1021.91 1021.99 1022.03 1022.19 1022.35 1022.37 1022.61 1023.05 1023.55 1023.91 1024.17 1024.47 1024.85 1025.35 1025.79 1026.19 1026.47 1026.65 1026.91 1027.39
1015.03 1015.31 1015.63 1015.99 1016.35 1016.67 1016.99 1017.35 1017.69 1018.07 1018.47 1018.83 1019.13 1019.47 1019.83 1020.01 1020.23 1020.47 1020.71 1020.95 1021.21 1021.43 1021.65 1021.79 1021.81 1022.01 1022.07 1022.13 1022.41 1022.83 1023.35 1023.83 1024.03 1024.27 1024.67 1025.17 1025.61 1026.01 1026.31 1026.57 1026.87 1027.35
1014.97 1015.19 1015.55 1015.93 1016.27 1016.53 1016.93 1017.25 1017.53 1017.91 1018.33 1018.71 1019.01 1019.33 1019.67 1019.91 1020.09 1020.27 1020.55 1020.79 1021.05 1021.31 1021.47 1021.63 1021.71 1021.81 1021.91 1021.95 1022.17 1022.59 1023.11 1023.57 1023.89 1024.19 1024.53 1024.89 1025.25 1025.75 1026.17 1026.41 1026.75 1027.35
1014.81 1015.05 1015.39 1015.77 1016.13 1016.47 1016.73 1017.13 1017.45 1017.85 1018.27 1018.61 1018.97 1019.33 1019.53 1019.73 1019.99 1020.19 1020.47 1020.75 1021.01 1021.15 1021.29 1021.41 1021.47 1021.55 1021.63 1021.83 1022.11 1022.47 1022.83 1023.27 1023.61 1023.89 1024.25 1024.61 1025.01 1025.45 1025.87 1026.21 1026.71 1027.33
1014.55 1014.79 1015.01 1015.35 1015.85 1016.25 1016.53 1016.79 1017.29 1017.67 1018.11 1018.45 1018.65 1018.95 1019.27 1019.49 1019.69 1019.97 1020.19 1020.43 1020.67 1020.85 1020.99 1021.09 1021.21 1021.37 1021.49 1021.69 1021.95 1022.23 1022.59 1022.97 1023.31 1023.67 1024.03 1024.41 1024.85 1025.35 1025.77 1026.11 1026.53 1027.41
1014.19 1014.43 1014.79 1015.11 1015.47 1015.89 1016.25 1016.65 1017.05 1017.43 1017.83 1018.19 1018.47 1018.75 1019.03 1019.35 1019.53 1019.75 1019.97 1020.11 1020.27 1020.45 1020.67 1020.85 1021.05 1021.21 1021.39 1021.61 1021.91 1022.25 1022.61 1022.97 1023.37 1023.73 1024.13 1024.57 1024.97 1025.37 1025.75 1026.17 1026.63 1027.29
1013.77 1014.07 1014.41 1014.81 1015.21 1015.61 1016.03 1016.45 1016.81 1017.21 1017.59 1017.93 1018.31 1018.65 1018.91 1019.07 1019.25 1019.43 1019.63 1019.85 1020.03 1020.27 1020.47 1020.61 1020.85 1020.95 1021.09 1021.41 1021.79 1022.11 1022.53 1022.99 1023.35 1023.75 1024.25 1024.71 1025.15 1025.59 1025.97 1026.39 1026.87 1027.43
1013.41 1013.79 1014.15 1014.55 1015.05 1015.43 1015.79 1016.17 1016.59 1016.99 1017.39 1017.73 1018.13 1018.43 1018.71 1018.89 1019.19 1019.47 1019.77 1019.97 1020.05 1020.25 1020.49 1020.63 1020.75 1020.91 1021.07 1021.33 1021.71 1022.09 1022.37 1022.69 1023.11 1023.53 1023.91 1024.37 1024.93 1025.45 1025.89 1026.27 1026.77 1027.29
1013.05 1013.49 1013.89 1014.29 1014.71 1015.13 1015.51 1015.93 1016.39 1016.87 1017.29 1017.65 1018.03 1018.41 1018.77 1019.01 1019.29 1019.63 1019.89 1020.09 1020.29 1020.41 1020.61 1020.77 1020.83 1020.99 1021.21 1021.49 1021.61 1021.89 1022.31 1022.65 1023.03 1023.35 1023.69 1024.13 1024.75 1025.43 1026.07 1026.47 1026.87 1027.31
1012.91 1013.23 1013.59 1014.01 1014.39 1014.87 1015.31 1015.79 1016.29 1016.79 1017.29 1017.63 1018.03 1018.37 1018.69 1018.99 1019.29 1019.65 1019.87 1020.05 1020.23 1020.35 1020.53 1020.73 1020.85 1020.91 1020.95 1021.03 1021.31 1021.67 1022.01 1022.45 1022.87 1023.39 1023.83 1024.33 1024.77 1025.19 1025.83 1026.47 1026.93 1027.33
1012.67 1012.97 1013.35 1013.73 1014.21 1014.69 1015.17 1015.67 1016.21 1016.75 1017.19 1017.61 1018.07 1018.45 1018.77 1019.05 1019.29 1019.43 1019.71 1019.99 1020.27 1020.49 1020.73 1020.93 1020.99 1021.09 1021.29 1021.33 1021.49 1021.81 1022.11 1022.47 1022.89 1023.37 1023.89 1024.31 1024.69 1025.03 1025.59 1026.17 1026.71 1027.31
1012.41 1012.77 1013.15 1013.57 1014.03 1014.57 1015.13 1015.69 1016.19 1016.69 1017.13 1017.59 1017.97 1018.27 1018.69 1018.99 1019.21 1019.45 1019.71 1019.93 1020.19 1020.39 1020.65 1020.91 1021.11 1021.27 1021.53 1021.73 1021.81 1022.01 1022.25 1022.51 1022.87 1023.25 1023.67 1024.19 1024.59 1024.97 1025.43 1025.99 1026.59 1027.21
1012.19 1012.65 1013.03 1013.43 1013.91 1014.53 1015.09 1015.69 1016.23 1016.63 1017.03 1017.41 1017.81 1018.23 1018.59 1018.95 1019.29 1019.51 1019.73 1019.93 1020.11 1020.31 1020.55 1020.87 1021.25 1021.57 1021.85 1021.97 1022.03 1022.07 1022.17 1022.45 1022.85 1023.27 1023.57 1023.97 1024.43 1024.85 1025.27 1025.81 1026.33 1026.77
1012.07 1012.51 1012.97 1013.41 1013.89 1014.43 1015.01 1015.55 1016.05 1016.53 1016.97 1017.33 1017.67 1018.05 1018.37 1018.67 1018.99 1019.37 1019.67 1019.95 1020.19 1020.33 1020.55 1020.89 1021.25 1021.47 1021.67 1021.85 1022.03 1022.25 1022.41 1022.61 1022.99 1023.37 1023.71 1024.11 1024.49 1024.81 1025.17 1025.59 1026.07 1026.55
1011.97 1012.43 1012.91 1013.41 1013.93 1014.45 1014.97 1015.49 1015.95 1016.37 1016.87 1017.25 1017.59 1017.97 1018.29 1018.65 1019.09 1019.39 1019.69 1019.97 1020.21 1020.43 1020.67 1020.89 1021.17 1021.37 1021.63 1021.91 1022.17 1022.47 1022.79 1023.11 1023.39 1023.61 1023.89 1024.31 1024.73 1025.09 1025.33 1025.65 1026.03 1026.37
1011.91 1012.37 1012.93 1013.45 1013.97 1014.53 1015.03 1015.53 1015.99 1016.49 1016.91 1017.21 1017.67 1018.05 1018.37 1018.71 1019.07 1019.37 1019.69 1020.05 1020.39 1020.61 1020.75 1020.95 1021.21 1021.39 1021.55 1021.77 1022.05 1022.33 1022.77 1023.19 1023.57 1023.97 1024.35 1024.67 1024.95 1025.25 1025.53 1025.79 1026.05 1026.25
1011.87 1012.37 1012.97 1013.55 1014.09 1014.65 1015.15 1015.65 1016.09 1016.53 1016.95 1017.23 1017.59 1018.03 1018.47 1018.81 1019.17 1019.55 1019.89 1020.23 1020.53 1020.75 1020.85 1021.05 1021.33 1021.47 1021.55 1021.69 1021.91 1022.21 1022.71 1023.29 1023.81 1024.23 1024.65 1024.89 1025.11 1025.35 1025.63 1025.85 1026.01 1026.15
1011.93 1012.41 1012.97 1013.55 1014.13 1014.65 1015.13 1015.65 1016.09 1016.49 1016.93 1017.33 1017.71 1018.05 1018.45 1018.83 1019.21 1019.61 1020.07 1020.37 1020.69 1020.91 1021.07 1021.25 1021.55 1021.69 1021.67 1021.77 1021.93 1022.15 1022.67 1023.29 1023.79 1024.21 1024.57 1024.87 1025.05 1025.33 1025.61 1025.85 1026.05 1026.23
1012.09 1012.59 1013.05 1013.51 1014.07 1014.61 1015.11 1015.59 1015.99 1016.49 1017.01 1017.37 1017.81 1018.11 1018.55 1018.95 1019.31 1019.63 1020.07 1020.47 1020.83 1021.09 1021.23 1021.35 1021.57 1021.71 1021.65 1021.65 1021.81 1022.05 1022.45 1022.95 1023.41 1023.87 1024.23 1024.53 1024.73 1024.91 1025.15 1025.39 1025.63 1025.85
Wind_Speed
6 5 6 6 5 4 6 7 6 6 5 5 7 8 9 7 7 8 8 7 8 8 8 8 8 7 7 8 8 7 7 7 5 4 5 6 4 5 5 4 3 4
9 7 5 6 5 5 5 6 5 6 7 7 6 7 7 8 8 8 8 7 8 10 8 8 8 8 8 7 7 6 5 5 5 3 5 5 4 5 5 5 4 4
11 11 8 8 7 7 7 5 4 5 6 7 6 6 6 6 7 7 6 6 7 8 9 7 6 6 7 5 6 5 4 5 6 4 5 5 4 5 5 5 4 4
11 11 9 8 7 7 6 6 5 4 6 6 7 6 5 5 6 7 7 7 7 6 6 7 7 5 5 5 6 4 5 5 5 6 6 5 4 6 5 5 5 5
11 9 8 8 8 7 7 7 8 7 8 8 6 5 5 6 6 7 7 7 7 6 6 7 6 6 6 6 6 6 6 5 6 6 6 6 5 6 5 6 6 6
11 10 9 9 8 8 8 10 9 8 8 7 8 5 7 6 6 7 7 8 7 7 7 6 7 6 6 7 6 6 6 6 6 7 7 7 6 5 4 5 7 7
10 10 10 9 8 9 9 8 9 8 7 7 6 5 7 7 8 8 8 8 8 7 7 7 8 8 7 7 6 7 6 7 7 7 8 7 7 7 5 6 7 7
12 9 9 8 8 9 9 8 8 8 7 6 8 7 7 8 8 7 7 7 8 8 7 6 7 8 8 7 8 8 7 6 7 8 8 8 8 8 6 5 7 8
10 9 8 9 9 8 8 8 6 7 7 8 7 7 7 8 8 9 8 8 7 7 7 7 8 8 8 8 8 9 9 8 7 8 9 9 9 8 8 7 7 7
9 8 10 9 10 8 8 7 6 6 7 7 7 6 8 7 8 9 8 8 7 7 7 7 8 8 8 8 10 10 10 10 8 8 8 9 9 9 8 7 8 8
9 8 10 10 9 8 10 9 7 7 7 8 8 7 8 7 8 8 8 8 8 8 8 8 8 8 9 8 8 8 10 10 9 8 8 8 8 9 8 8 7 8
9 9 11 11 10 9 9 10 8 8 8 8 8 8 8 8 8 9 9 10 10 10 9 9 9 8 9 9 10 10 10 9 9 9 9 8 8 8 8 7 9 9
10 10 8 10 11 10 9 9 9 8 9 9 8 9 9 9 7 10 9 10 10 10 10 9 9 9 9 9 9 9 10 10 9 8 7 7 7 8 8 8 9 9
10 10 10 10 10 10 9 10 10 9 8 7 8 9 9 8 9 12 10 9 9 8 8 9 9 10 9 9 9 9 9 9 9 9 8 8 8 7 7 7 7 7
9 9 8 10 10 10 10 10 11 10 9 8 8 8 7 6 5 8 8 9 8 7 8 7 8 8 8 10 10 9 10 11 10 10 10 10 9 9 7 8 7 7
9 9 9 10 11 10 10 10 10 9 9 7 9 8 7 6 5 7 7 8 7 7 6 6 7 6 9 15 13 12 10 8 9 9 10 10 10 8 7 7 7 7
8 9 10 10 10 10 10 10 9 8 9 4 6 6 8 7 7 9 9 8 8 9 9 7 6 7 14 14 12 13 11 10 10 9 8 8 9 9 8 8 7 6
8 9 10 10 10 10 10 7 8 8 7 6 6 6 6 6 8 9 9 7 6 5 5 6 6 7 11 11 12 13 10 10 7 8 7 8 8 10 7 8 9 7
8 9 10 10 10 10 8 7 7 7 7 7 8 7 7 8 6 8 8 7 7 7 7 7 6 8 10 9 10 13 13 11 8 8 9 8 9 10 11 8 7 6
9 7 8 9 9 8 8 8 7 8 7 6 6 6 7 6 6 7 6 6 7 7 5 5 4 7 11 11 12 13 14 11 7 8 8 8 10 10 7 8 10 9
9 9 7 8 8 9 9 8 9 7 8 6 7 8 9 9 9 9 7 6 5 6 6 6 6 11 12 13 13 12 13 7 6 6 5 5 6 9 10 10 8 7
9 9 7 7 8 9 9 9 9 8 9 6 5 4 4 5 4 5 7 7 7 6 5 6 5 13 13 12 12 11 10 3 3 4 5 5 6 7 8 6 6 7
9 10 7 8 8 9 9 9 9 7 6 5 6 4 5 6 6 5 5 6 6 6 6 5 5 10 13 12 12 13 8 3 4 4 4 5 5 5 6 5 6 6
9 7 7 7 8 9 9 7 5 4 5 5 7 7 7 6 4 4 4 4 5 6 6 5 5 7 12 13 14 14 9 6 4 4 4 4 4 3 3 4 5 6
7 7 8 8 8 8 8 9 8 6 5 5 5 5 5 4 5 5 5 4 4 5 5 6 5 7 12 13 14 14 10 6 6 5 5 4 4 4 3 3 4 5
6 8 8 9 9 8 7 7 6 6 6 6 6 4 5 4 5 4 6 4 4 4 5 5 6 6 9 15 15 16 14 8 6 6 6 6 5 5 5 4 5 5
Wind_Direction
189 193 183 183 199 185 169 177 174 174 180 183 190 190 193 190 172 178 182 176 173 182 188 189 188 189 185 182 186 187 180 174 159 143 133 141 110 123 120 121 102 113
196 201 180 177 185 185 191 190 173 179 183 189 196 192 186 178 177 173 180 178 173 182 186 185 183 188 182 178 179 173 149 149 124 89 122 119 109 108 111 112 105 91
196 198 194 193 194 191 187 172 172 174 190 192 179 184 177 174 167 170 169 166 172 174 177 175 180 180 174 164 159 153 144 134 127 119 115 120 115 119 115 109 98 95
196 194 190 192 195 196 176 178 177 153 181 189 195 184 153 146 158 171 178 174 178 182 174 166 169 158 152 147 152 143 121 125 125 127 119 109 107 111 113 108 106 101
198 191 186 188 195 186 179 187 186 182 189 193 184 151 146 153 158 168 172 172 178 177 172 169 159 152 155 151 154 137 133 126 131 134 128 119 112 115 121 126 125 115
199 192 188 186 185 179 193 200 193 183 181 182 185 142 165 162 170 176 175 177 179 173 169 166 154 150 160 155 151 141 144 138 141 137 127 127 125 122 130 132 132 124
191 190 190 185 182 185 195 194 191 185 180 185 160 165 165 171 179 178 177 179 174 174 173 170 161 156 159 157 153 143 142 133 138 137 135 132 131 128 132 136 128 121
197 191 190 184 182 184 193 191 189 185 178 161 178 179 169 177 177 172 172 176 178 174 174 172 160 158 162 160 153 141 129 137 145 145 140 135 137 139 139 131 127 123
191 187 179 187 195 194 195 186 163 170 170 174 176 169 171 178 175 172 174 175 176 174 174 173 163 162 166 161 151 148 144 147 154 151 147 145 146 146 143 137 128 124
193 180 196 196 200 196 184 179 171 168 168 176 171 165 175 179 179 173 168 171 172 176 176 175 168 166 166 160 154 152 150 152 152 151 149 149 147 144 144 142 135 121
191 173 186 193 195 192 198 189 180 170 174 178 171 169 172 166 173 172 170 171 178 180 181 179 176 171 166 157 152 151 152 152 153 149 147 148 146 145 142 134 124 113
190 183 192 197 191 192 188 193 184 180 175 182 171 164 171 175 166 179 181 184 186 187 185 183 176 173 166 159 158 157 154 152 148 148 149 145 137 133 130 126 124 117
194 190 178 187 190 194 188 186 182 178 175 173 170 171 176 180 165 179 186 189 189 185 185 180 173 171 168 164 154 151 151 153 150 142 134 129 127 126 121 117 119 123
194 189 184 181 184 186 184 184 180 177 175 172 171 180 184 177 175 187 187 187 187 186 185 177 174 173 167 158 156 154 151 147 148 147 140 127 119 117 115 114 112 112
186 185 180 179 182 186 184 180 184 180 176 170 173 182 187 172 164 175 180 187 184 182 184 183 179 174 166 160 153 152 155 156 155 150 145 139 131 124 119 120 122 130
185 177 178 178 185 178 176 170 174 174 165 163 176 180 185 163 143 168 185 187 187 182 185 182 185 182 170 169 169 166 163 154 151 153 150 145 137 124 120 125 131 137
183 175 176 181 181 172 174 172 161 148 168 160 170 173 172 167 154 173 185 190 192 191 189 192 187 186 179 172 162 159 158 154 153 151 145 142 142 140 139 143 142 143
186 174 180 181 173 167 167 168 164 165 171 161 169 167 169 164 175 185 184 187 188 193 192 195 199 179 174 167 159 157 154 155 146 139 144 150 155 147 124 147 157 152
182 176 178 172 171 166 168 164 162 164 165 164 172 169 160 174 178 170 181 183 183 183 181 183 194 182 174 170 154 151 152 154 155 153 151 158 164 162 159 146 141 141
178 168 169 163 156 160 155 155 158 167 166 164 160 155 165 169 171 178 176 181 184 188 182 173 172 168 175 169 169 166 159 155 159 160 163 163 166 166 142 142 157 162
168 163 160 154 156 154 156 156 160 157 159 156 159 169 173 176 177 179 183 178 179 177 171 172 175 171 181 184 182 174 166 146 146 154 150 139 130 140 160 162 161 161
161 161 158 155 152 156 160 160 161 160 161 151 138 134 128 146 156 167 174 177 176 171 168 176 169 176 183 183 180 176 162 128 116 129 133 141 147 154 157 153 150 162
159 157 155 154 155 158 162 160 158 155 144 131 145 137 142 162 168 171 169 167 166 173 176 177 165 176 178 176 173 168 147 113 113 109 129 143 151 155 159 153 167 177
156 156 151 150 152 157 159 150 136 112 133 141 154 156 159 162 143 101 105 156 164 175 180 171 162 170 176 175 171 169 143 142 133 125 136 153 157 153 151 171 183 172
144 147 145 145 151 154 152 151 152 143 134 139 140 138 132 108 125 129 144 122 159 163 151 157 157 169 177 179 175 166 138 141 142 149 158 173 174 167 164 184 199 200
136 138 142 146 147 143 143 141 133 125 136 139 140 126 123 125 138 132 152 152 148 156 171 165 161 175 181 177 175 170 154 149 157 161 177 175 175 173 173 188 194 202